owner,sensor,date,latitude,longitude,air_temperature,qcFlag 
DISL,ioos:station:DISL:PPTA:1,2016-03-01T00:00:00Z,30.2791,-87.5561,18.87,1111122 
DISL,ioos:station:DISL:PPTA:1,2016-03-01T00:30:00Z,30.2791,-87.5561,18.72,1111122 
DISL,ioos:station:DISL:PPTA:1,2016-03-01T01:00:00Z,30.2791,-87.5561,18.65,1111122 
DISL,ioos:station:DISL:PPTA:1,2016-03-01T01:30:00Z,30.2791,-87.5561,18.55,1111122 
DISL,ioos:station:DISL:PPTA:1,2016-03-01T02:00:00Z,30.2791,-87.5561,18.45,1111122 
DISL,ioos:station:DISL:PPTA:1,2016-03-01T02:30:00Z,30.2791,-87.5561,18.39,1111122 
DISL,ioos:station:DISL:PPTA:1,2016-03-01T03:00:00Z,30.2791,-87.5561,18.47,1111122 
DISL,ioos:station:DISL:PPTA:1,2016-03-01T03:30:00Z,30.2791,-87.5561,18.37,1111122 
DISL,ioos:station:DISL:PPTA:1,2016-03-01T04:00:00Z,30.2791,-87.5561,18.44,1111122 
DISL,ioos:station:DISL:PPTA:1,2016-03-01T04:30:00Z,30.2791,-87.5561,18.13,1111122 
DISL,ioos:station:DISL:PPTA:1,2016-03-01T05:00:00Z,30.2791,-87.5561,18.09,1111122 
DISL,ioos:station:DISL:PPTA:1,2016-03-01T05:30:00Z,30.2791,-87.5561,18.06,1111122 
DISL,ioos:station:DISL:PPTA:1,2016-03-01T06:00:00Z,30.2791,-87.5561,17.99,1111122 
DISL,ioos:station:DISL:PPTA:1,2016-03-01T06:30:00Z,30.2791,-87.5561,17.89,1111122 
DISL,ioos:station:DISL:PPTA:1,2016-03-01T07:00:00Z,30.2791,-87.5561,17.75,1111122 
DISL,ioos:station:DISL:PPTA:1,2016-03-01T07:30:00Z,30.2791,-87.5561,17.79,1111122 
DISL,ioos:station:DISL:PPTA:1,2016-03-01T08:00:00Z,30.2791,-87.5561,17.68,1111122 
DISL,ioos:station:DISL:PPTA:1,2016-03-01T08:30:00Z,30.2791,-87.5561,17.51,1111122 
DISL,ioos:station:DISL:PPTA:1,2016-03-01T09:00:00Z,30.2791,-87.5561,17.72,1111122 
DISL,ioos:station:DISL:PPTA:1,2016-03-01T09:30:00Z,30.2791,-87.5561,17.65,1111122 
DISL,ioos:station:DISL:PPTA:1,2016-03-01T10:00:00Z,30.2791,-87.5561,17.92,1111122 
DISL,ioos:station:DISL:PPTA:1,2016-03-01T10:30:00Z,30.2791,-87.5561,17.82,1111122 
DISL,ioos:station:DISL:PPTA:1,2016-03-01T11:00:00Z,30.2791,-87.5561,17.92,1111122 
DISL,ioos:station:DISL:PPTA:1,2016-03-01T11:30:00Z,30.2791,-87.5561,17.72,1111122 
DISL,ioos:station:DISL:PPTA:1,2016-03-01T12:00:00Z,30.2791,-87.5561,17.68,1111122 
DISL,ioos:station:DISL:PPTA:1,2016-03-01T12:30:00Z,30.2791,-87.5561,17.89,1111122 
DISL,ioos:station:DISL:PPTA:1,2016-03-01T13:00:00Z,30.2791,-87.5561,18.84,1111122 
DISL,ioos:station:DISL:PPTA:1,2016-03-01T13:30:00Z,30.2791,-87.5561,19.54,1111122 
DISL,ioos:station:DISL:PPTA:1,2016-03-01T14:00:00Z,30.2791,-87.5561,20.37,1111122 
DISL,ioos:station:DISL:PPTA:1,2016-03-01T14:30:00Z,30.2791,-87.5561,20.55,1111122 
DISL,ioos:station:DISL:PPTA:1,2016-03-01T15:00:00Z,30.2791,-87.5561,20.57,1111122 
DISL,ioos:station:DISL:PPTA:1,2016-03-01T15:30:00Z,30.2791,-87.5561,20.72,1111122 
DISL,ioos:station:DISL:PPTA:1,2016-03-01T16:00:00Z,30.2791,-87.5561,21.06,1111122 
DISL,ioos:station:DISL:PPTA:1,2016-03-01T16:30:00Z,30.2791,-87.5561,20.6,1111122 
DISL,ioos:station:DISL:PPTA:1,2016-03-01T17:00:00Z,30.2791,-87.5561,20.87,1111122 
DISL,ioos:station:DISL:PPTA:1,2016-03-01T17:30:00Z,30.2791,-87.5561,20.82,1111122 
DISL,ioos:station:DISL:PPTA:1,2016-03-01T18:00:00Z,30.2791,-87.5561,22.32,1111122 
DISL,ioos:station:DISL:PPTA:1,2016-03-01T18:30:00Z,30.2791,-87.5561,21.22,1111122 
DISL,ioos:station:DISL:PPTA:1,2016-03-01T19:00:00Z,30.2791,-87.5561,21.13,1111122 
DISL,ioos:station:DISL:PPTA:1,2016-03-01T19:30:00Z,30.2791,-87.5561,20.79,1111122 
DISL,ioos:station:DISL:PPTA:1,2016-03-01T20:00:00Z,30.2791,-87.5561,21.0,1111122 
DISL,ioos:station:DISL:PPTA:1,2016-03-01T20:30:00Z,30.2791,-87.5561,21.45,1111122 
DISL,ioos:station:DISL:PPTA:1,2016-03-01T21:00:00Z,30.2791,-87.5561,21.32,1111122 
DISL,ioos:station:DISL:PPTA:1,2016-03-01T21:30:00Z,30.2791,-87.5561,21.53,1111122 
DISL,ioos:station:DISL:PPTA:1,2016-03-01T22:00:00Z,30.2791,-87.5561,20.58,1111122 
DISL,ioos:station:DISL:PPTA:1,2016-03-01T22:30:00Z,30.2791,-87.5561,21.65,1111122 
DISL,ioos:station:DISL:PPTA:1,2016-03-01T23:00:00Z,30.2791,-87.5561,20.83,1111122 
DISL,ioos:station:DISL:PPTA:1,2016-03-01T23:30:00Z,30.2791,-87.5561,20.19,1111122 
DISL,ioos:station:DISL:PPTA:1,2016-03-02T00:00:00Z,30.2791,-87.5561,19.59,1111122 
DISL,ioos:station:DISL:PPTA:1,2016-03-02T00:30:00Z,30.2791,-87.5561,19.73,1111122 
DISL,ioos:station:DISL:PPTA:1,2016-03-02T01:00:00Z,30.2791,-87.5561,19.8,1111122 
DISL,ioos:station:DISL:PPTA:1,2016-03-02T01:30:00Z,30.2791,-87.5561,19.8,1111122 
DISL,ioos:station:DISL:PPTA:1,2016-03-02T02:00:00Z,30.2791,-87.5561,19.7,1111122 
DISL,ioos:station:DISL:PPTA:1,2016-03-02T02:30:00Z,30.2791,-87.5561,19.81,1111122 
DISL,ioos:station:DISL:PPTA:1,2016-03-02T03:00:00Z,30.2791,-87.5561,19.81,1111122 
DISL,ioos:station:DISL:PPTA:1,2016-03-02T03:30:00Z,30.2791,-87.5561,19.77,1111122 
DISL,ioos:station:DISL:PPTA:1,2016-03-02T04:00:00Z,30.2791,-87.5561,19.7,1111122 
DISL,ioos:station:DISL:PPTA:1,2016-03-02T04:30:00Z,30.2791,-87.5561,19.66,1111122 
DISL,ioos:station:DISL:PPTA:1,2016-03-02T05:00:00Z,30.2791,-87.5561,19.67,1111122 
DISL,ioos:station:DISL:PPTA:1,2016-03-02T05:30:00Z,30.2791,-87.5561,19.59,1111122 
DISL,ioos:station:DISL:PPTA:1,2016-03-02T06:00:00Z,30.2791,-87.5561,19.42,1111122 
DISL,ioos:station:DISL:PPTA:1,2016-03-02T06:30:00Z,30.2791,-87.5561,19.05,1111122 
DISL,ioos:station:DISL:PPTA:1,2016-03-02T07:00:00Z,30.2791,-87.5561,18.99,1111122 
DISL,ioos:station:DISL:PPTA:1,2016-03-02T07:30:00Z,30.2791,-87.5561,18.51,1111122 
DISL,ioos:station:DISL:PPTA:1,2016-03-02T08:00:00Z,30.2791,-87.5561,17.21,1111122 
DISL,ioos:station:DISL:PPTA:1,2016-03-02T08:30:00Z,30.2791,-87.5561,16.13,1111122 
DISL,ioos:station:DISL:PPTA:1,2016-03-02T09:00:00Z,30.2791,-87.5561,15.46,1111122 
DISL,ioos:station:DISL:PPTA:1,2016-03-02T09:30:00Z,30.2791,-87.5561,14.92,1111122 
DISL,ioos:station:DISL:PPTA:1,2016-03-02T10:00:00Z,30.2791,-87.5561,14.2,1111122 
DISL,ioos:station:DISL:PPTA:1,2016-03-02T10:30:00Z,30.2791,-87.5561,13.56,1111122 
DISL,ioos:station:DISL:PPTA:1,2016-03-02T11:00:00Z,30.2791,-87.5561,12.95,1111122 
DISL,ioos:station:DISL:PPTA:1,2016-03-02T11:30:00Z,30.2791,-87.5561,12.45,1111122 
DISL,ioos:station:DISL:PPTA:1,2016-03-02T12:00:00Z,30.2791,-87.5561,11.74,1111122 
DISL,ioos:station:DISL:PPTA:1,2016-03-02T12:30:00Z,30.2791,-87.5561,11.54,1111122 
DISL,ioos:station:DISL:PPTA:1,2016-03-02T13:00:00Z,30.2791,-87.5561,11.71,1111122 
DISL,ioos:station:DISL:PPTA:1,2016-03-02T13:30:00Z,30.2791,-87.5561,11.95,1111122 
DISL,ioos:station:DISL:PPTA:1,2016-03-02T14:00:00Z,30.2791,-87.5561,11.94,1111122 
DISL,ioos:station:DISL:PPTA:1,2016-03-02T14:30:00Z,30.2791,-87.5561,12.52,1111122 
DISL,ioos:station:DISL:PPTA:1,2016-03-02T15:00:00Z,30.2791,-87.5561,12.96,1111122 
DISL,ioos:station:DISL:PPTA:1,2016-03-02T15:30:00Z,30.2791,-87.5561,13.63,1111122 
DISL,ioos:station:DISL:PPTA:1,2016-03-02T16:00:00Z,30.2791,-87.5561,14.03,1111122 
DISL,ioos:station:DISL:PPTA:1,2016-03-02T16:30:00Z,30.2791,-87.5561,14.92,1111122 
DISL,ioos:station:DISL:PPTA:1,2016-03-02T17:00:00Z,30.2791,-87.5561,15.36,1111122 
DISL,ioos:station:DISL:PPTA:1,2016-03-02T17:30:00Z,30.2791,-87.5561,15.93,1111122 
DISL,ioos:station:DISL:PPTA:1,2016-03-02T18:00:00Z,30.2791,-87.5561,16.37,1111122 
DISL,ioos:station:DISL:PPTA:1,2016-03-02T18:30:00Z,30.2791,-87.5561,17.08,1111122 
DISL,ioos:station:DISL:PPTA:1,2016-03-02T19:00:00Z,30.2791,-87.5561,17.02,1111122 
DISL,ioos:station:DISL:PPTA:1,2016-03-02T19:30:00Z,30.2791,-87.5561,18.17,1111122 
DISL,ioos:station:DISL:PPTA:1,2016-03-02T20:00:00Z,30.2791,-87.5561,18.68,1111122 
DISL,ioos:station:DISL:PPTA:1,2016-03-02T20:30:00Z,30.2791,-87.5561,18.52,1111122 
DISL,ioos:station:DISL:PPTA:1,2016-03-02T21:00:00Z,30.2791,-87.5561,17.97,1111122 
DISL,ioos:station:DISL:PPTA:1,2016-03-02T21:30:00Z,30.2791,-87.5561,18.01,1111122 
DISL,ioos:station:DISL:PPTA:1,2016-03-02T22:00:00Z,30.2791,-87.5561,18.22,1111122 
DISL,ioos:station:DISL:PPTA:1,2016-03-02T22:30:00Z,30.2791,-87.5561,17.91,1111122 
DISL,ioos:station:DISL:PPTA:1,2016-03-02T23:00:00Z,30.2791,-87.5561,18.06,1111122 
DISL,ioos:station:DISL:PPTA:1,2016-03-02T23:30:00Z,30.2791,-87.5561,17.62,1111122 
DISL,ioos:station:DISL:PPTA:1,2016-03-03T00:00:00Z,30.2791,-87.5561,17.0,1111122 
DISL,ioos:station:DISL:PPTA:1,2016-03-03T00:30:00Z,30.2791,-87.5561,16.11,1111122 
DISL,ioos:station:DISL:PPTA:1,2016-03-03T01:00:00Z,30.2791,-87.5561,15.64,1111122 
DISL,ioos:station:DISL:PPTA:1,2016-03-03T01:30:00Z,30.2791,-87.5561,15.4,1111122 
DISL,ioos:station:DISL:PPTA:1,2016-03-03T02:00:00Z,30.2791,-87.5561,14.82,1111122 
DISL,ioos:station:DISL:PPTA:1,2016-03-03T02:30:00Z,30.2791,-87.5561,14.93,1111122 
DISL,ioos:station:DISL:PPTA:1,2016-03-03T03:00:00Z,30.2791,-87.5561,15.0,1111122 
DISL,ioos:station:DISL:PPTA:1,2016-03-03T03:30:00Z,30.2791,-87.5561,14.73,1111122 
DISL,ioos:station:DISL:PPTA:1,2016-03-03T04:00:00Z,30.2791,-87.5561,14.12,1111122 
DISL,ioos:station:DISL:PPTA:1,2016-03-03T04:30:00Z,30.2791,-87.5561,14.4,1111122 
DISL,ioos:station:DISL:PPTA:1,2016-03-03T05:00:00Z,30.2791,-87.5561,14.2,1111122 
DISL,ioos:station:DISL:PPTA:1,2016-03-03T05:30:00Z,30.2791,-87.5561,14.67,1111122 
DISL,ioos:station:DISL:PPTA:1,2016-03-03T06:00:00Z,30.2791,-87.5561,14.88,1111122 
DISL,ioos:station:DISL:PPTA:1,2016-03-03T06:30:00Z,30.2791,-87.5561,14.88,1111122 
DISL,ioos:station:DISL:PPTA:1,2016-03-03T07:00:00Z,30.2791,-87.5561,14.6,1111122 
DISL,ioos:station:DISL:PPTA:1,2016-03-03T07:30:00Z,30.2791,-87.5561,13.88,1111122 
DISL,ioos:station:DISL:PPTA:1,2016-03-03T08:00:00Z,30.2791,-87.5561,13.96,1111122 
DISL,ioos:station:DISL:PPTA:1,2016-03-03T08:30:00Z,30.2791,-87.5561,13.72,1111122 
DISL,ioos:station:DISL:PPTA:1,2016-03-03T09:00:00Z,30.2791,-87.5561,13.24,1111122 
DISL,ioos:station:DISL:PPTA:1,2016-03-03T09:30:00Z,30.2791,-87.5561,13.58,1111122 
DISL,ioos:station:DISL:PPTA:1,2016-03-03T10:00:00Z,30.2791,-87.5561,16.35,1111122 
DISL,ioos:station:DISL:PPTA:1,2016-03-03T10:30:00Z,30.2791,-87.5561,16.44,1111122 
DISL,ioos:station:DISL:PPTA:1,2016-03-03T11:00:00Z,30.2791,-87.5561,16.51,1111122 
DISL,ioos:station:DISL:PPTA:1,2016-03-03T11:30:00Z,30.2791,-87.5561,16.43,1111122 
DISL,ioos:station:DISL:PPTA:1,2016-03-03T12:00:00Z,30.2791,-87.5561,16.64,1111122 
DISL,ioos:station:DISL:PPTA:1,2016-03-03T12:30:00Z,30.2791,-87.5561,16.87,1111122 
DISL,ioos:station:DISL:PPTA:1,2016-03-03T13:00:00Z,30.2791,-87.5561,17.27,1111122 
DISL,ioos:station:DISL:PPTA:1,2016-03-03T13:30:00Z,30.2791,-87.5561,17.65,1111122 
DISL,ioos:station:DISL:PPTA:1,2016-03-03T14:00:00Z,30.2791,-87.5561,17.9,1111122 
DISL,ioos:station:DISL:PPTA:1,2016-03-03T14:30:00Z,30.2791,-87.5561,18.06,1111122 
DISL,ioos:station:DISL:PPTA:1,2016-03-03T15:00:00Z,30.2791,-87.5561,17.92,1111122 
DISL,ioos:station:DISL:PPTA:1,2016-03-03T15:30:00Z,30.2791,-87.5561,17.85,1111122 
DISL,ioos:station:DISL:PPTA:1,2016-03-03T16:00:00Z,30.2791,-87.5561,18.2,1111122 
DISL,ioos:station:DISL:PPTA:1,2016-03-03T16:30:00Z,30.2791,-87.5561,18.24,1111122 
DISL,ioos:station:DISL:PPTA:1,2016-03-03T17:00:00Z,30.2791,-87.5561,18.4,1111122 
DISL,ioos:station:DISL:PPTA:1,2016-03-03T17:30:00Z,30.2791,-87.5561,18.7,1111122 
DISL,ioos:station:DISL:PPTA:1,2016-03-03T18:00:00Z,30.2791,-87.5561,19.73,1111122 
DISL,ioos:station:DISL:PPTA:1,2016-03-03T18:30:00Z,30.2791,-87.5561,19.27,1111122 
DISL,ioos:station:DISL:PPTA:1,2016-03-03T19:00:00Z,30.2791,-87.5561,18.89,1111122 
DISL,ioos:station:DISL:PPTA:1,2016-03-03T19:30:00Z,30.2791,-87.5561,19.02,1111122 
DISL,ioos:station:DISL:PPTA:1,2016-03-03T20:00:00Z,30.2791,-87.5561,19.5,1111122 
DISL,ioos:station:DISL:PPTA:1,2016-03-03T20:30:00Z,30.2791,-87.5561,19.71,1111122 
DISL,ioos:station:DISL:PPTA:1,2016-03-03T21:00:00Z,30.2791,-87.5561,19.51,1111122 
DISL,ioos:station:DISL:PPTA:1,2016-03-03T21:30:00Z,30.2791,-87.5561,19.47,1111122 
DISL,ioos:station:DISL:PPTA:1,2016-03-03T22:00:00Z,30.2791,-87.5561,19.65,1111122 
DISL,ioos:station:DISL:PPTA:1,2016-03-03T22:30:00Z,30.2791,-87.5561,19.86,1111122 
DISL,ioos:station:DISL:PPTA:1,2016-03-03T23:00:00Z,30.2791,-87.5561,20.03,1111122 
DISL,ioos:station:DISL:PPTA:1,2016-03-03T23:30:00Z,30.2791,-87.5561,19.9,1111122 
DISL,ioos:station:DISL:PPTA:1,2016-03-04T00:00:00Z,30.2791,-87.5561,19.86,1111122 
DISL,ioos:station:DISL:PPTA:1,2016-03-04T00:30:00Z,30.2791,-87.5561,19.93,1111122 
DISL,ioos:station:DISL:PPTA:1,2016-03-04T01:00:00Z,30.2791,-87.5561,20.0,1111122 
DISL,ioos:station:DISL:PPTA:1,2016-03-04T01:30:00Z,30.2791,-87.5561,20.1,1111122 
DISL,ioos:station:DISL:PPTA:1,2016-03-04T02:00:00Z,30.2791,-87.5561,19.97,1111122 
DISL,ioos:station:DISL:PPTA:1,2016-03-04T02:30:00Z,30.2791,-87.5561,19.97,1111122 
DISL,ioos:station:DISL:PPTA:1,2016-03-04T03:00:00Z,30.2791,-87.5561,19.59,1111122 
DISL,ioos:station:DISL:PPTA:1,2016-03-04T03:30:00Z,30.2791,-87.5561,16.18,1111122 
DISL,ioos:station:DISL:PPTA:1,2016-03-04T04:00:00Z,30.2791,-87.5561,15.58,1111122 
DISL,ioos:station:DISL:PPTA:1,2016-03-04T04:30:00Z,30.2791,-87.5561,15.22,1111122 
DISL,ioos:station:DISL:PPTA:1,2016-03-04T05:00:00Z,30.2791,-87.5561,14.34,1111122 
DISL,ioos:station:DISL:PPTA:1,2016-03-04T05:30:00Z,30.2791,-87.5561,13.83,1111122 
DISL,ioos:station:DISL:PPTA:1,2016-03-04T06:00:00Z,30.2791,-87.5561,13.36,1111122 
DISL,ioos:station:DISL:PPTA:1,2016-03-04T06:30:00Z,30.2791,-87.5561,12.68,1111122 
DISL,ioos:station:DISL:PPTA:1,2016-03-04T07:00:00Z,30.2791,-87.5561,12.01,1111122 
DISL,ioos:station:DISL:PPTA:1,2016-03-04T07:30:00Z,30.2791,-87.5561,11.5,1111122 
DISL,ioos:station:DISL:PPTA:1,2016-03-04T08:00:00Z,30.2791,-87.5561,11.26,1111122 
DISL,ioos:station:DISL:PPTA:1,2016-03-04T08:30:00Z,30.2791,-87.5561,10.86,1111122 
DISL,ioos:station:DISL:PPTA:1,2016-03-04T09:00:00Z,30.2791,-87.5561,10.45,1111122 
DISL,ioos:station:DISL:PPTA:1,2016-03-04T09:30:00Z,30.2791,-87.5561,10.46,1111122 
DISL,ioos:station:DISL:PPTA:1,2016-03-04T10:00:00Z,30.2791,-87.5561,10.05,1111122 
DISL,ioos:station:DISL:PPTA:1,2016-03-04T10:30:00Z,30.2791,-87.5561,9.68,1111122 
DISL,ioos:station:DISL:PPTA:1,2016-03-04T11:00:00Z,30.2791,-87.5561,9.74,1111122 
DISL,ioos:station:DISL:PPTA:1,2016-03-04T11:30:00Z,30.2791,-87.5561,10.05,1111122 
DISL,ioos:station:DISL:PPTA:1,2016-03-04T12:00:00Z,30.2791,-87.5561,9.98,1111122 
DISL,ioos:station:DISL:PPTA:1,2016-03-04T12:30:00Z,30.2791,-87.5561,9.91,1111122 
DISL,ioos:station:DISL:PPTA:1,2016-03-04T13:00:00Z,30.2791,-87.5561,9.88,1111122 
DISL,ioos:station:DISL:PPTA:1,2016-03-04T13:30:00Z,30.2791,-87.5561,10.05,1111122 
DISL,ioos:station:DISL:PPTA:1,2016-03-04T14:00:00Z,30.2791,-87.5561,10.56,1111122 
DISL,ioos:station:DISL:PPTA:1,2016-03-04T14:30:00Z,30.2791,-87.5561,10.42,1111122 
DISL,ioos:station:DISL:PPTA:1,2016-03-04T15:00:00Z,30.2791,-87.5561,10.25,1111122 
DISL,ioos:station:DISL:PPTA:1,2016-03-04T15:30:00Z,30.2791,-87.5561,10.25,1111122 
DISL,ioos:station:DISL:PPTA:1,2016-03-04T16:00:00Z,30.2791,-87.5561,11.27,1111122 
DISL,ioos:station:DISL:PPTA:1,2016-03-04T16:30:00Z,30.2791,-87.5561,11.09,1111122 
DISL,ioos:station:DISL:PPTA:1,2016-03-04T17:00:00Z,30.2791,-87.5561,12.07,1111122 
DISL,ioos:station:DISL:PPTA:1,2016-03-04T17:30:00Z,30.2791,-87.5561,13.8,1111122 
DISL,ioos:station:DISL:PPTA:1,2016-03-04T18:00:00Z,30.2791,-87.5561,14.58,1111122 
DISL,ioos:station:DISL:PPTA:1,2016-03-04T18:30:00Z,30.2791,-87.5561,15.43,1111122 
DISL,ioos:station:DISL:PPTA:1,2016-03-04T19:00:00Z,30.2791,-87.5561,16.32,1111122 
DISL,ioos:station:DISL:PPTA:1,2016-03-04T19:30:00Z,30.2791,-87.5561,17.0,1111122 
DISL,ioos:station:DISL:PPTA:1,2016-03-04T20:00:00Z,30.2791,-87.5561,17.72,1111122 
DISL,ioos:station:DISL:PPTA:1,2016-03-04T20:30:00Z,30.2791,-87.5561,18.16,1111122 
DISL,ioos:station:DISL:PPTA:1,2016-03-04T21:00:00Z,30.2791,-87.5561,18.95,1111122 
DISL,ioos:station:DISL:PPTA:1,2016-03-04T21:30:00Z,30.2791,-87.5561,16.56,1111122 
DISL,ioos:station:DISL:PPTA:1,2016-03-04T22:00:00Z,30.2791,-87.5561,16.86,1111122 
DISL,ioos:station:DISL:PPTA:1,2016-03-04T22:30:00Z,30.2791,-87.5561,17.24,1111122 
DISL,ioos:station:DISL:PPTA:1,2016-03-04T23:00:00Z,30.2791,-87.5561,16.93,1111122 
DISL,ioos:station:DISL:PPTA:1,2016-03-04T23:30:00Z,30.2791,-87.5561,16.8,1111122 
DISL,ioos:station:DISL:PPTA:1,2016-03-05T00:00:00Z,30.2791,-87.5561,16.02,1111122 
DISL,ioos:station:DISL:PPTA:1,2016-03-05T00:30:00Z,30.2791,-87.5561,15.54,1111122 
DISL,ioos:station:DISL:PPTA:1,2016-03-05T01:00:00Z,30.2791,-87.5561,15.35,1111122 
DISL,ioos:station:DISL:PPTA:1,2016-03-05T01:30:00Z,30.2791,-87.5561,14.3,1111122 
DISL,ioos:station:DISL:PPTA:1,2016-03-05T02:00:00Z,30.2791,-87.5561,14.33,1111122 
DISL,ioos:station:DISL:PPTA:1,2016-03-05T02:30:00Z,30.2791,-87.5561,14.4,1111122 
DISL,ioos:station:DISL:PPTA:1,2016-03-05T03:00:00Z,30.2791,-87.5561,14.03,1111122 
DISL,ioos:station:DISL:PPTA:1,2016-03-05T03:30:00Z,30.2791,-87.5561,14.23,1111122 
DISL,ioos:station:DISL:PPTA:1,2016-03-05T04:00:00Z,30.2791,-87.5561,14.57,1111122 
DISL,ioos:station:DISL:PPTA:1,2016-03-05T04:30:00Z,30.2791,-87.5561,14.19,1111122 
DISL,ioos:station:DISL:PPTA:1,2016-03-05T05:00:00Z,30.2791,-87.5561,14.12,1111122 
DISL,ioos:station:DISL:PPTA:1,2016-03-05T05:30:00Z,30.2791,-87.5561,13.75,1111122 
DISL,ioos:station:DISL:PPTA:1,2016-03-05T06:00:00Z,30.2791,-87.5561,13.2,1111122 
DISL,ioos:station:DISL:PPTA:1,2016-03-05T06:30:00Z,30.2791,-87.5561,12.9,1111122 
DISL,ioos:station:DISL:PPTA:1,2016-03-05T07:00:00Z,30.2791,-87.5561,12.69,1111122 
DISL,ioos:station:DISL:PPTA:1,2016-03-05T07:30:00Z,30.2791,-87.5561,12.63,1111122 
DISL,ioos:station:DISL:PPTA:1,2016-03-05T08:00:00Z,30.2791,-87.5561,12.56,1111122 
DISL,ioos:station:DISL:PPTA:1,2016-03-05T08:30:00Z,30.2791,-87.5561,12.63,1111122 
DISL,ioos:station:DISL:PPTA:1,2016-03-05T09:00:00Z,30.2791,-87.5561,12.7,1111122 
DISL,ioos:station:DISL:PPTA:1,2016-03-05T09:30:00Z,30.2791,-87.5561,12.36,1111122 
DISL,ioos:station:DISL:PPTA:1,2016-03-05T10:00:00Z,30.2791,-87.5561,11.98,1111122 
DISL,ioos:station:DISL:PPTA:1,2016-03-05T10:30:00Z,30.2791,-87.5561,11.82,1111122 
DISL,ioos:station:DISL:PPTA:1,2016-03-05T11:00:00Z,30.2791,-87.5561,11.1,1111122 
DISL,ioos:station:DISL:PPTA:1,2016-03-05T11:30:00Z,30.2791,-87.5561,10.08,1111122 
DISL,ioos:station:DISL:PPTA:1,2016-03-05T12:00:00Z,30.2791,-87.5561,9.64,1111122 
DISL,ioos:station:DISL:PPTA:1,2016-03-05T12:30:00Z,30.2791,-87.5561,10.06,1111122 
DISL,ioos:station:DISL:PPTA:1,2016-03-05T13:00:00Z,30.2791,-87.5561,10.91,1111122 
DISL,ioos:station:DISL:PPTA:1,2016-03-05T13:30:00Z,30.2791,-87.5561,11.41,1111122 
DISL,ioos:station:DISL:PPTA:1,2016-03-05T14:00:00Z,30.2791,-87.5561,11.77,1111122 
DISL,ioos:station:DISL:PPTA:1,2016-03-05T14:30:00Z,30.2791,-87.5561,12.58,1111122 
DISL,ioos:station:DISL:PPTA:1,2016-03-05T15:00:00Z,30.2791,-87.5561,14.78,1111122 
DISL,ioos:station:DISL:PPTA:1,2016-03-05T15:30:00Z,30.2791,-87.5561,14.98,1111122 
DISL,ioos:station:DISL:PPTA:1,2016-03-05T16:00:00Z,30.2791,-87.5561,15.13,1111122 
DISL,ioos:station:DISL:PPTA:1,2016-03-05T16:30:00Z,30.2791,-87.5561,16.04,1111122 
DISL,ioos:station:DISL:PPTA:1,2016-03-05T17:00:00Z,30.2791,-87.5561,17.46,1111122 
DISL,ioos:station:DISL:PPTA:1,2016-03-05T17:30:00Z,30.2791,-87.5561,18.07,1111122 
DISL,ioos:station:DISL:PPTA:1,2016-03-05T18:00:00Z,30.2791,-87.5561,18.07,1111122 
DISL,ioos:station:DISL:PPTA:1,2016-03-05T18:30:00Z,30.2791,-87.5561,19.37,1111122 
DISL,ioos:station:DISL:PPTA:1,2016-03-05T19:00:00Z,30.2791,-87.5561,17.84,1111122 
DISL,ioos:station:DISL:PPTA:1,2016-03-05T19:30:00Z,30.2791,-87.5561,18.76,1111122 
DISL,ioos:station:DISL:PPTA:1,2016-03-05T20:00:00Z,30.2791,-87.5561,19.41,1111122 
DISL,ioos:station:DISL:PPTA:1,2016-03-05T20:30:00Z,30.2791,-87.5561,19.79,1111122 
DISL,ioos:station:DISL:PPTA:1,2016-03-05T21:00:00Z,30.2791,-87.5561,20.34,1111122 
DISL,ioos:station:DISL:PPTA:1,2016-03-05T21:30:00Z,30.2791,-87.5561,19.97,1111122 
DISL,ioos:station:DISL:PPTA:1,2016-03-05T22:00:00Z,30.2791,-87.5561,20.68,1111122 
DISL,ioos:station:DISL:PPTA:1,2016-03-05T22:30:00Z,30.2791,-87.5561,21.71,1111122 
DISL,ioos:station:DISL:PPTA:1,2016-03-05T23:00:00Z,30.2791,-87.5561,19.04,1111122 
DISL,ioos:station:DISL:PPTA:1,2016-03-05T23:30:00Z,30.2791,-87.5561,17.69,1111122 
DISL,ioos:station:DISL:PPTA:1,2016-03-06T00:00:00Z,30.2791,-87.5561,16.98,1111122 
DISL,ioos:station:DISL:PPTA:1,2016-03-06T00:30:00Z,30.2791,-87.5561,16.48,1111122 
DISL,ioos:station:DISL:PPTA:1,2016-03-06T01:00:00Z,30.2791,-87.5561,16.01,1111122 
DISL,ioos:station:DISL:PPTA:1,2016-03-06T01:30:00Z,30.2791,-87.5561,15.77,1111122 
DISL,ioos:station:DISL:PPTA:1,2016-03-06T02:00:00Z,30.2791,-87.5561,15.44,1111122 
DISL,ioos:station:DISL:PPTA:1,2016-03-06T02:30:00Z,30.2791,-87.5561,15.13,1111122 
DISL,ioos:station:DISL:PPTA:1,2016-03-06T03:00:00Z,30.2791,-87.5561,15.14,1111122 
DISL,ioos:station:DISL:PPTA:1,2016-03-06T03:30:00Z,30.2791,-87.5561,14.53,1111122 
DISL,ioos:station:DISL:PPTA:1,2016-03-06T04:00:00Z,30.2791,-87.5561,14.49,1111122 
DISL,ioos:station:DISL:PPTA:1,2016-03-06T04:30:00Z,30.2791,-87.5561,14.13,1111122 
DISL,ioos:station:DISL:PPTA:1,2016-03-06T05:00:00Z,30.2791,-87.5561,14.06,1111122 
DISL,ioos:station:DISL:PPTA:1,2016-03-06T05:30:00Z,30.2791,-87.5561,13.82,1111122 
DISL,ioos:station:DISL:PPTA:1,2016-03-06T06:00:00Z,30.2791,-87.5561,13.66,1111122 
DISL,ioos:station:DISL:PPTA:1,2016-03-06T06:30:00Z,30.2791,-87.5561,13.59,1111122 
DISL,ioos:station:DISL:PPTA:1,2016-03-06T07:00:00Z,30.2791,-87.5561,13.25,1111122 
DISL,ioos:station:DISL:PPTA:1,2016-03-06T07:30:00Z,30.2791,-87.5561,13.38,1111122 
DISL,ioos:station:DISL:PPTA:1,2016-03-06T08:00:00Z,30.2791,-87.5561,13.35,1111122 
DISL,ioos:station:DISL:PPTA:1,2016-03-06T08:30:00Z,30.2791,-87.5561,13.25,1111122 
DISL,ioos:station:DISL:PPTA:1,2016-03-06T09:00:00Z,30.2791,-87.5561,13.42,1111122 
DISL,ioos:station:DISL:PPTA:1,2016-03-06T09:30:00Z,30.2791,-87.5561,13.18,1111122 
DISL,ioos:station:DISL:PPTA:1,2016-03-06T10:00:00Z,30.2791,-87.5561,13.38,1111122 
DISL,ioos:station:DISL:PPTA:1,2016-03-06T10:30:00Z,30.2791,-87.5561,12.59,1111122 
DISL,ioos:station:DISL:PPTA:1,2016-03-06T11:00:00Z,30.2791,-87.5561,11.47,1111122 
DISL,ioos:station:DISL:PPTA:1,2016-03-06T11:30:00Z,30.2791,-87.5561,11.47,1111122 
DISL,ioos:station:DISL:PPTA:1,2016-03-06T12:00:00Z,30.2791,-87.5561,11.48,1111122 
DISL,ioos:station:DISL:PPTA:1,2016-03-06T12:30:00Z,30.2791,-87.5561,12.37,1111122 
DISL,ioos:station:DISL:PPTA:1,2016-03-06T13:00:00Z,30.2791,-87.5561,14.0,1111122 
DISL,ioos:station:DISL:PPTA:1,2016-03-06T13:30:00Z,30.2791,-87.5561,14.53,1111122 
DISL,ioos:station:DISL:PPTA:1,2016-03-06T14:00:00Z,30.2791,-87.5561,14.82,1111122 
DISL,ioos:station:DISL:PPTA:1,2016-03-06T14:30:00Z,30.2791,-87.5561,15.6,1111122 
DISL,ioos:station:DISL:PPTA:1,2016-03-06T15:00:00Z,30.2791,-87.5561,15.92,1111122 
DISL,ioos:station:DISL:PPTA:1,2016-03-06T15:30:00Z,30.2791,-87.5561,16.7,1111122 
DISL,ioos:station:DISL:PPTA:1,2016-03-06T16:00:00Z,30.2791,-87.5561,17.51,1111122 
DISL,ioos:station:DISL:PPTA:1,2016-03-06T16:30:00Z,30.2791,-87.5561,17.41,1111122 
DISL,ioos:station:DISL:PPTA:1,2016-03-06T17:00:00Z,30.2791,-87.5561,17.3,1111122 
DISL,ioos:station:DISL:PPTA:1,2016-03-06T17:30:00Z,30.2791,-87.5561,17.67,1111122 
DISL,ioos:station:DISL:PPTA:1,2016-03-06T18:00:00Z,30.2791,-87.5561,18.62,1111122 
DISL,ioos:station:DISL:PPTA:1,2016-03-06T18:30:00Z,30.2791,-87.5561,18.89,1111122 
DISL,ioos:station:DISL:PPTA:1,2016-03-06T19:00:00Z,30.2791,-87.5561,19.16,1111122 
DISL,ioos:station:DISL:PPTA:1,2016-03-06T19:30:00Z,30.2791,-87.5561,19.3,1111122 
DISL,ioos:station:DISL:PPTA:1,2016-03-06T20:00:00Z,30.2791,-87.5561,19.33,1111122 
DISL,ioos:station:DISL:PPTA:1,2016-03-06T20:30:00Z,30.2791,-87.5561,18.91,1111122 
DISL,ioos:station:DISL:PPTA:1,2016-03-06T21:00:00Z,30.2791,-87.5561,19.42,1111122 
DISL,ioos:station:DISL:PPTA:1,2016-03-06T21:30:00Z,30.2791,-87.5561,19.43,1111122 
DISL,ioos:station:DISL:PPTA:1,2016-03-06T22:00:00Z,30.2791,-87.5561,19.6,1111122 
DISL,ioos:station:DISL:PPTA:1,2016-03-06T22:30:00Z,30.2791,-87.5561,19.3,1111122 
DISL,ioos:station:DISL:PPTA:1,2016-03-06T23:00:00Z,30.2791,-87.5561,18.59,1111122 
DISL,ioos:station:DISL:PPTA:1,2016-03-06T23:30:00Z,30.2791,-87.5561,18.12,1111122 